Sigfox identifier Datetime Temperature Humidity SNR
003C4887 2019-02-20 14:02:33 20.8 24 23.6
003C4887 2019-02-20 13:30:15 20.8 25 23.6
003C4887 2019-02-20 12:57:59 20.8 25 23.5
003C4887 2019-02-20 12:25:39 20.8 26 23.6
003C4887 2019-02-20 11:53:22 21 26 23.6
003C4887 2019-02-20 11:52:08 20.8 26 23.6
003C4887 2019-02-20 11:19:50 20.7 26 22.8
003C4887 2019-02-20 10:47:32 20.7 26 22.8
003C4887 2019-02-20 10:15:14 20.7 26 21.8
003C4887 2019-02-20 09:42:55 20.7 26 21.7
003C4887 2019-02-20 09:10:38 20.7 26 20.4
003C4887 2019-02-20 08:38:21 20.7 26 18.5
003C4887 2019-02-20 08:06:05 20.7 26 18.4
003C4887 2019-02-20 07:33:47 20.7 26 18.4
003C4887 2019-02-20 07:01:31 20.7 26 18.5
003C4887 2019-02-20 06:29:12 20.8 26 18.4
003C4887 2019-02-20 05:56:54 20.7 26 18.3
003C4887 2019-02-20 05:24:35 20.7 26 14.4
003C4887 2019-02-20 04:52:16 20.8 26 14.3
003C4887 2019-02-20 04:19:57 20.8 26 14
003C4887 2019-02-20 03:47:41 20.8 26 14.3
003C4887 2019-02-20 03:15:21 20.8 26 14.7
003C4887 2019-02-20 02:43:03 20.8 26 18.3
003C4887 2019-02-20 02:10:44 20.8 26 18.3
003C4887 2019-02-20 01:38:25 20.8 26 18.2
003C4887 2019-02-20 01:06:10 20.8 26 18.1
003C4887 2019-02-20 00:33:49 20.8 26 18.1
003C4887 2019-02-20 00:01:33 20.8 26 18.1
003C4887 2019-02-19 23:29:13 20.9 26 18
003C4887 2019-02-19 22:56:56 20.8 26 18.1
003C4887 2019-02-19 22:24:39 20.9 26 20.1
003C4887 2019-02-19 21:52:23 20.9 26 20.2
003C4887 2019-02-19 21:20:05 20.9 26 20.3
003C4887 2019-02-19 20:47:48 20.9 26 20.3
003C4887 2019-02-19 20:15:30 20.9 26 20.3
003C4887 2019-02-19 19:43:13 20.9 26 20.3
003C4887 2019-02-19 19:10:57 20.9 26 20.4
003C4887 2019-02-19 18:38:42 20.9 26 20.5
003C4887 2019-02-19 18:06:22 21 26 20.7
003C4887 2019-02-19 17:34:05 21 26 20.7
003C4887 2019-02-19 17:01:52 21 26 20.7
003C4887 2019-02-19 16:29:34 21 26 20.8
003C4887 2019-02-19 15:57:13 20.9 26 20.9
003C4887 2019-02-19 15:24:51 20.9 26 21
003C4887 2019-02-19 14:52:34 20.9 26 20.9
003C4887 2019-02-19 14:20:14 20.9 26 20.8
003C4887 2019-02-19 13:47:56 20.9 26 19.2
003C4887 2019-02-19 13:15:37 20.9 25 19.5
003C4887 2019-02-19 12:43:20 20.9 25 19.6
003C4887 2019-02-19 12:11:02 20.8 25 19.9
003C4887 2019-02-19 11:38:44 20.8 25 20
003C4887 2019-02-19 11:06:25 20.8 25 20.1
003C4887 2019-02-19 10:34:06 20.8 25 20.5
003C4887 2019-02-19 10:01:47 20.8 24 20.6
003C4887 2019-02-19 09:29:30 21 24 19
003C4887 2019-02-19 09:28:15 20.8 24 19.2
003C4887 2019-02-19 08:55:57 20.7 24 19.2
003C4887 2019-02-19 08:23:42 20.8 24 19.4
003C4887 2019-02-19 07:51:23 20.8 24 19.4
003C4887 2019-02-19 07:19:06 20.8 24 19.5
003C4887 2019-02-19 06:46:50 20.8 24 19.4
003C4887 2019-02-19 06:14:33 20.8 23 19.3
003C4887 2019-02-19 05:42:16 20.8 23 19.4
003C4887 2019-02-19 05:09:58 20.8 23 19.1
003C4887 2019-02-19 04:37:42 20.8 23 20.8
003C4887 2019-02-19 04:05:25 20.8 23 20.8
003C4887 2019-02-19 03:33:08 20.8 23 20.7
003C4887 2019-02-19 03:00:51 20.8 23 20.6
003C4887 2019-02-19 02:28:35 20.8 23 20.5
003C4887 2019-02-19 01:56:19 20.8 23 20.5
003C4887 2019-02-19 01:24:01 20.8 22 20.7
003C4887 2019-02-19 00:51:44 20.8 22 20.8
003C4887 2019-02-19 00:19:26 20.8 22 20.7
003C4887 2019-02-18 23:47:07 20.8 22 20.9
003C4887 2019-02-18 23:14:49 20.8 22 22
003C4887 2019-02-18 22:42:31 20.8 22 22.2
003C4887 2019-02-18 22:10:14 20.8 22 22.3
003C4887 2019-02-18 21:37:56 20.8 22 22.4
003C4887 2019-02-18 21:05:38 20.8 22 22.5
003C4887 2019-02-18 20:33:21 20.8 22 22.7
003C4887 2019-02-18 20:01:04 20.8 22 22.7
003C4887 2019-02-18 19:28:46 20.8 21 22.8
003C4887 2019-02-18 18:56:29 20.8 21 22.9
003C4887 2019-02-18 18:24:12 20.8 21 23
003C4887 2019-02-18 17:51:55 20.8 21 23.2
003C4887 2019-02-18 17:19:37 20.8 21 23.4
003C4887 2019-02-18 16:47:20 20.9 21 23.5
003C4887 2019-02-18 16:15:00 20.9 21 23.6
003C4887 2019-02-18 15:42:41 20.9 21 23.7
003C4887 2019-02-18 15:10:24 21 20 23.1
003C4887 2019-02-18 14:38:05 21 20 23.4
003C4887 2019-02-18 14:05:48 21 20 23.5
003C4887 2019-02-18 13:33:27 21.1 20 23.6
003C4887 2019-02-18 13:01:09 21.1 20 23.8
003C4887 2019-02-18 12:28:50 21.1 20 24
003C4887 2019-02-18 11:56:32 21.1 20 24.1
003C4887 2019-02-18 11:24:15 21.1 20 24.2
003C4887 2019-02-18 10:51:56 21 19 24.3
003C4887 2019-02-18 10:19:37 20.9 19 24.4
003C4887 2019-02-18 09:47:19 20.9 19 23.9
003C4887 2019-02-18 09:14:59 20.8 19 23.8
003C4887 2019-02-18 08:42:41 20.8 19 23.9
003C4887 2019-02-18 08:10:22 20.7 19 23.8
003C4887 2019-02-18 07:38:03 20.7 19 23.7
003C4887 2019-02-18 07:05:45 20.9 19 23.7
003C4887 2019-02-18 07:04:30 20.7 19 23.6
003C4887 2019-02-18 06:32:12 20.7 19 23.6
003C4887 2019-02-18 05:59:54 20.7 19 23.5
003C4887 2019-02-18 05:27:36 20.7 19 23.6
003C4887 2019-02-18 04:55:19 20.7 19 23.6
003C4887 2019-02-18 04:23:02 20.7 19 23.6
003C4887 2019-02-18 03:50:45 20.7 20 23.8
003C4887 2019-02-18 03:18:29 20.7 20 23.7
003C4887 2019-02-18 02:46:12 20.7 20 23.8
003C4887 2019-02-18 02:13:55 20.7 20 23.8
003C4887 2019-02-18 01:41:38 20.8 20 23.8
003C4887 2019-02-18 01:09:19 20.8 20 23.8
003C4887 2019-02-18 00:37:00 20.8 20 23.9
003C4887 2019-02-18 00:04:42 20.8 20 23.9
003C4887 2019-02-17 23:32:23 20.8 20 23.9
003C4887 2019-02-17 23:00:04 20.8 20 23.9
003C4887 2019-02-17 22:27:46 20.8 20 24
003C4887 2019-02-17 21:55:26 20.8 20 24
003C4887 2019-02-17 21:23:06 20.8 21 23.9
003C4887 2019-02-17 20:50:47 20.8 21 23.9
003C4887 2019-02-17 20:18:27 20.8 21 23.9
003C4887 2019-02-17 19:46:07 20.8 21 23.9
003C4887 2019-02-17 19:13:48 20.8 21 23.8
003C4887 2019-02-17 18:41:28 20.8 21 23.9
003C4887 2019-02-17 18:09:09 20.8 21 24
003C4887 2019-02-17 17:36:50 20.9 21 24.1
003C4887 2019-02-17 17:04:31 20.9 21 24.1
003C4887 2019-02-17 16:32:12 20.9 21 24.2
003C4887 2019-02-17 15:59:53 20.9 21 24.2
003C4887 2019-02-17 15:27:36 20.9 21 24.2
003C4887 2019-02-17 14:55:17 20.9 22 24.2
003C4887 2019-02-17 14:23:00 20.9 22 24.1
003C4887 2019-02-17 13:50:42 20.9 22 24
003C4887 2019-02-17 13:18:25 20.9 22 24
003C4887 2019-02-17 12:46:07 20.9 22 24.4
003C4887 2019-02-17 12:13:49 20.9 22 24.9
003C4887 2019-02-17 11:41:31 20.8 22 24.9
003C4887 2019-02-17 11:09:11 20.8 22 24.9
003C4887 2019-02-17 10:36:50 20.8 22 24.9
003C4887 2019-02-17 10:04:30 20.8 22 24.9
003C4887 2019-02-17 09:32:08 20.8 22 24.7
003C4887 2019-02-17 08:59:48 20.8 22 24.7
003C4887 2019-02-17 08:27:29 20.9 23 24.7
003C4887 2019-02-17 07:55:09 20.9 23 24.8
003C4887 2019-02-17 07:22:49 20.9 23 24.8
003C4887 2019-02-17 06:50:30 20.9 23 24.8
003C4887 2019-02-17 06:18:10 20.9 23 24.8
003C4887 2019-02-17 05:45:51 20.9 23 24.8
003C4887 2019-02-17 05:13:31 20.9 23 24.9
003C4887 2019-02-17 04:41:12 21.1 23 24.8
003C4887 2019-02-17 04:39:56 20.9 24 24.7
003C4887 2019-02-17 04:07:39 20.9 24 24.8
003C4887 2019-02-17 03:35:20 20.9 24 25.2
003C4887 2019-02-17 03:03:00 20.9 24 25.1
003C4887 2019-02-17 02:30:40 20.9 24 25.1
003C4887 2019-02-17 01:58:21 20.9 24 25
003C4887 2019-02-17 01:26:00 20.9 25 25.5
003C4887 2019-02-17 00:53:41 20.9 25 25.6
003C4887 2019-02-17 00:21:23 20.9 25 25.6
003C4887 2019-02-16 23:49:03 21 25 25.1
003C4887 2019-02-16 23:16:45 21 25 24.7
003C4887 2019-02-16 22:44:25 21 25 24.7
003C4887 2019-02-16 22:12:06 21 25 24.7
003C4887 2019-02-16 21:39:47 21 25 24.7
003C4887 2019-02-16 21:07:29 21 25 25.1
003C4887 2019-02-16 20:35:10 21 25 25.2
003C4887 2019-02-16 20:02:52 21 25 25.1
003C4887 2019-02-16 19:30:33 21 25 25.1
003C4887 2019-02-16 18:58:14 21 25 25.2
003C4887 2019-02-16 18:25:54 21 25 25.2
003C4887 2019-02-16 17:53:34 21.1 25 25.2
003C4887 2019-02-16 17:21:14 21.1 25 25.1
003C4887 2019-02-16 16:48:56 21.1 25 25.2
003C4887 2019-02-16 16:16:37 21.1 25 25.2
003C4887 2019-02-16 15:44:17 21.1 25 25.2
003C4887 2019-02-16 15:11:57 21.1 25 25.2
003C4887 2019-02-16 14:39:38 21.1 25 25.2
003C4887 2019-02-16 14:07:20 21 25 24.8
003C4887 2019-02-16 13:35:01 21 25 24.9
003C4887 2019-02-16 13:02:42 21 25 24.9
003C4887 2019-02-16 12:30:23 21 25 25.1
003C4887 2019-02-16 11:58:05 21 25 24.7
003C4887 2019-02-16 11:25:47 21 25 24.6
003C4887 2019-02-16 10:53:28 20.9 25 24.6
003C4887 2019-02-16 10:21:11 20.9 25 24.7
003C4887 2019-02-16 09:48:54 20.9 25 24.7
003C4887 2019-02-16 09:16:36 20.9 25 24.6
003C4887 2019-02-16 08:44:19 21 25 24.7
003C4887 2019-02-16 08:12:01 21 25 24.6
003C4887 2019-02-16 07:39:43 21 25 24.1
003C4887 2019-02-16 07:07:26 21 25 24
003C4887 2019-02-16 06:35:07 21 25 24
003C4887 2019-02-16 06:02:48 21 25 24
003C4887 2019-02-16 05:30:29 21 25 23.9
003C4887 2019-02-16 04:58:10 21 25 23.8
003C4887 2019-02-16 04:25:52 21 25 23.8
003C4887 2019-02-16 03:53:35 21 25 24
003C4887 2019-02-16 03:21:18 21 25 23.9
003C4887 2019-02-16 02:48:59 21 25 23.8
003C4887 2019-02-16 02:16:39 21.3 25 23.9
003C4887 2019-02-16 02:15:24 21.1 25 23.8
003C4887 2019-02-16 01:43:06 21.1 25 23.8
003C4887 2019-02-16 01:10:45 21.1 25 23.8
003C4887 2019-02-16 00:38:27 21.1 25 23.7
003C4887 2019-02-16 00:06:08 21.1 25 23.6
003C4887 2019-02-15 23:33:50 21.2 25 23.5
003C4887 2019-02-15 23:01:31 21.2 25 23.4
003C4887 2019-02-15 22:29:14 21.2 25 23.4
003C4887 2019-02-15 21:56:55 21.3 25 23.5
003C4887 2019-02-15 21:24:36 21.3 25 23.4
003C4887 2019-02-15 20:52:18 21.4 25 23.4
003C4887 2019-02-15 20:20:00 21.4 25 23.6
003C4887 2019-02-15 19:47:42 21.5 25 23.6
003C4887 2019-02-15 19:15:23 21.5 25 23.6
003C4887 2019-02-15 18:43:04 21.5 25 23.5
003C4887 2019-02-15 18:10:46 21.5 25 24.1
003C4887 2019-02-15 17:38:28 21.5 25 24.2
003C4887 2019-02-15 17:06:10 21.4 25 24.2
003C4887 2019-02-15 16:33:50 21.5 24 24.3
003C4887 2019-02-15 16:01:32 21.4 24 24.4
003C4887 2019-02-15 15:29:14 21.4 24 24.3
003C4887 2019-02-15 14:56:56 21.4 24 24.2
003C4887 2019-02-15 14:24:38 21.4 24 24.3
003C4887 2019-02-15 13:52:20 21.4 24 24.3
003C4887 2019-02-15 13:20:00 21.3 25 24.3
003C4887 2019-02-15 12:47:42 21.3 25 24.3
003C4887 2019-02-15 12:15:24 21.3 25 24.3
003C4887 2019-02-15 11:43:05 21.3 25 24.2
003C4887 2019-02-15 11:10:46 21.3 25 24.2
003C4887 2019-02-15 10:38:27 21.3 25 24.3
003C4887 2019-02-15 10:06:09 21.2 25 24.3
003C4887 2019-02-15 09:33:50 21.2 25 24.3
003C4887 2019-02-15 09:01:30 21.2 25 24.3
003C4887 2019-02-15 08:29:12 21.1 25 24.3
003C4887 2019-02-15 07:56:53 21.1 25 24.4
003C4887 2019-02-15 07:24:35 21.1 25 24.3
003C4887 2019-02-15 06:52:16 21.1 25 24.3
003C4887 2019-02-15 06:19:56 21.2 25 24.3
003C4887 2019-02-15 05:47:38 21.2 25 24.8
003C4887 2019-02-15 05:15:20 21.2 25 24.8
003C4887 2019-02-15 04:43:02 21.1 25 24.3
003C4887 2019-02-15 04:10:45 21.2 25 24.2
003C4887 2019-02-15 03:38:28 21.2 25 24.1
003C4887 2019-02-15 03:06:11 21.1 25 23.9
003C4887 2019-02-15 02:33:53 21.2 25 23.8
003C4887 2019-02-15 02:01:34 21.2 25 23.9
003C4887 2019-02-15 01:29:16 21.2 25 23.7
003C4887 2019-02-15 00:56:59 21.2 25 23.5
003C4887 2019-02-15 00:24:42 21.3 25 23.4
003C4887 2019-02-14 23:52:25 21.5 25 23.3
003C4887 2019-02-14 23:51:10 21.3 25 23.2
003C4887 2019-02-14 23:18:54 21.3 25 23.2
003C4887 2019-02-14 22:46:35 21.3 25 23.1
003C4887 2019-02-14 22:14:17 21.4 25 23
003C4887 2019-02-14 21:41:58 21.4 24 22.9
003C4887 2019-02-14 21:09:39 21.4 24 22.9
003C4887 2019-02-14 20:37:20 21.5 24 22.8
003C4887 2019-02-14 20:05:01 21.5 24 22.6
003C4887 2019-02-14 19:32:44 21.6 24 22.4
003C4887 2019-02-14 19:00:26 21.6 24 22.4
003C4887 2019-02-14 18:28:07 21.6 24 22.3
003C4887 2019-02-14 17:55:49 21.6 24 22.1
003C4887 2019-02-14 17:23:29 21.7 24 22.1
003C4887 2019-02-14 16:51:11 21.7 24 21.2
003C4887 2019-02-14 16:18:51 21.6 25 21
003C4887 2019-02-14 15:46:32 21.6 24 21.1
003C4887 2019-02-14 15:14:13 21.6 24 20.9
003C4887 2019-02-14 14:41:55 21.5 24 21.1
003C4887 2019-02-14 14:09:38 21.5 24 21.3
003C4887 2019-02-14 13:37:19 21.5 23 21.2
003C4887 2019-02-14 13:05:00 21.4 23 21.2
003C4887 2019-02-14 12:32:40 21.3 22 21.4
003C4887 2019-02-14 12:00:21 21.2 23 21.7
003C4887 2019-02-14 11:28:04 21.1 23 21.8
003C4887 2019-02-14 10:55:46 21.1 23 21.9
003C4887 2019-02-14 10:23:27 21 24 21.9
003C4887 2019-02-14 09:51:08 20.9 23 21.8
003C4887 2019-02-14 09:18:50 20.9 24 21.9
003C4887 2019-02-14 08:46:34 20.8 23 22
003C4887 2019-02-14 08:14:16 20.8 24 21.9
003C4887 2019-02-14 07:41:58 20.8 24 22
003C4887 2019-02-14 07:09:40 20.8 25 21.9
003C4887 2019-02-14 06:37:22 20.8 25 21.9
003C4887 2019-02-14 06:05:03 20.9 25 21.9
003C4887 2019-02-14 05:32:45 20.9 25 21.7
003C4887 2019-02-14 05:00:28 20.9 25 21.5
003C4887 2019-02-14 04:28:12 20.9 25 21.4
003C4887 2019-02-14 03:55:55 20.9 25 21.3
003C4887 2019-02-14 03:23:37 20.9 25 21.2
003C4887 2019-02-14 02:51:19 20.9 25 22.3
003C4887 2019-02-14 02:19:00 20.9 25 22.2
003C4887 2019-02-14 01:46:41 20.9 25 22.2
003C4887 2019-02-14 01:14:23 20.9 25 22.1
003C4887 2019-02-14 00:42:04 20.9 25 22
003C4887 2019-02-14 00:09:46 20.9 25 21.9
003C4887 2019-02-13 23:37:28 21 25 21.9
003C4887 2019-02-13 23:05:10 21 25 21.8
003C4887 2019-02-13 22:32:53 21 25 21.5
003C4887 2019-02-13 22:00:34 21.1 25 21.4
003C4887 2019-02-13 21:28:15 21.4 24 21.2
003C4887 2019-02-13 21:27:01 21.1 25 21.2
003C4887 2019-02-13 20:54:43 21.2 25 21.1
003C4887 2019-02-13 20:22:26 21.2 25 21.1
003C4887 2019-02-13 19:50:10 21.3 25 21.1
003C4887 2019-02-13 19:17:53 21.4 25 21.1
003C4887 2019-02-13 18:45:36 21.4 25 21
003C4887 2019-02-13 18:13:17 21.5 26 21.1
003C4887 2019-02-13 17:40:58 21.4 26 20.9
003C4887 2019-02-13 17:08:39 21.4 26 20.9
003C4887 2019-02-13 16:36:20 21.3 27 20.9
003C4887 2019-02-13 16:04:01 21.2 26 21
003C4887 2019-02-13 15:31:46 21.1 26 21.2
003C4887 2019-02-13 14:59:23 21.1 26 21.1
003C4887 2019-02-13 14:27:04 20.9 25 21.1
003C4887 2019-02-13 13:54:44 21 24 19.7
003C4887 2019-02-13 13:22:27 21.1 24 19.5
003C4887 2019-02-13 12:50:08 21.1 25 19.5
003C4887 2019-02-13 12:17:50 21.1 24 19.5
003C4887 2019-02-13 11:45:31 21.1 25 19.3
003C4887 2019-02-13 11:13:13 21 25 19.1
003C4887 2019-02-13 10:40:57 20.8 25 19
003C4887 2019-02-13 10:08:39 20.8 24 19.1
003C4887 2019-02-13 09:36:22 20.8 23 19
003C4887 2019-02-13 09:04:04 20.8 22 19.2
003C4887 2019-02-13 08:31:47 20.8 22 19.3
003C4887 2019-02-13 07:59:29 20.8 21 19.2
003C4887 2019-02-13 07:27:12 20.8 19 19.1
003C4887 2019-02-13 06:54:54 20.8 18 18.9
003C4887 2019-02-13 06:22:37 20.8 18 18.8
003C4887 2019-02-13 05:50:19 20.8 18 18.8
003C4887 2019-02-13 05:18:02 20.8 18 18.6
003C4887 2019-02-13 04:45:45 20.8 18 18.4
003C4887 2019-02-13 04:13:26 20.8 18 18.4
003C4887 2019-02-13 03:41:09 20.9 18 18.2
003C4887 2019-02-13 03:08:48 20.9 18 18.1
003C4887 2019-02-13 02:36:31 20.9 18 18
003C4887 2019-02-13 02:04:13 20.9 18 17.4
003C4887 2019-02-13 01:31:56 20.9 17 17.7
003C4887 2019-02-13 00:59:38 20.9 17 17.9
003C4887 2019-02-13 00:27:19 21 18 17.9
003C4887 2019-02-12 23:55:02 21 19 18
003C4887 2019-02-12 23:22:43 21 19 18.2
003C4887 2019-02-12 22:50:24 21 18 18.4
003C4887 2019-02-12 22:18:07 21.1 18 18.6
003C4887 2019-02-12 21:45:50 21.1 19 18.7
003C4887 2019-02-12 21:13:31 21.2 20 18.5
003C4887 2019-02-12 20:41:12 21.2 21 19
003C4887 2019-02-12 20:08:54 21.3 20 19.5
003C4887 2019-02-12 19:36:36 21.3 20 19.3
003C4887 2019-02-12 19:04:19 21.4 20 19.2
003C4887 2019-02-12 19:03:03 21.2 20 19.5
003C4887 2019-02-12 18:30:46 21.1 19 19.6
003C4887 2019-02-12 17:58:30 21.1 18 19.5
003C4887 2019-02-12 17:26:12 21.1 18 19.6
003C4887 2019-02-12 16:53:59 21.3 18 19.9
003C4887 2019-02-12 16:21:38 21.4 18 20
003C4887 2019-02-12 15:49:19 21.4 18 20.3
003C4887 2019-02-12 15:17:02 21.4 18 20.5
003C4887 2019-02-12 14:44:45 21.4 18 20.6
003C4887 2019-02-12 14:12:27 21.2 18 20.5
003C4887 2019-02-12 13:40:10 21.2 18 20.5
003C4887 2019-02-12 13:07:51 21.3 18 20.5
003C4887 2019-02-12 12:35:33 21.4 19 20.4
003C4887 2019-02-12 12:03:16 21.3 18 20.1
003C4887 2019-02-12 11:30:58 21.3 18 21.4
003C4887 2019-02-12 10:58:39 21.3 19 21.4
003C4887 2019-02-12 10:26:19 21.2 20 21.3
003C4887 2019-02-12 09:53:59 21.1 20 21.2
003C4887 2019-02-12 09:21:40 21 22 21.1
003C4887 2019-02-12 08:49:22 20.9 23 21.1
003C4887 2019-02-12 08:17:02 20.9 22 21.1
003C4887 2019-02-12 07:44:42 20.8 23 20.8
003C4887 2019-02-12 07:12:21 20.8 25 20.5
003C4887 2019-02-12 06:40:03 20.8 25 20.6
003C4887 2019-02-12 06:07:41 20.9 26 20.6
003C4887 2019-02-12 05:35:21 20.9 26 20.5
003C4887 2019-02-12 05:03:02 20.9 26 20.6
003C4887 2019-02-12 04:30:43 20.9 26 20.7
003C4887 2019-02-12 03:58:23 20.9 26 20.7
003C4887 2019-02-12 03:26:03 20.9 27 20.6
003C4887 2019-02-12 02:53:43 20.9 27 20.6
003C4887 2019-02-12 02:21:22 20.9 27 20.3
003C4887 2019-02-12 01:49:00 20.9 27 20.2
003C4887 2019-02-12 01:16:40 21 27 20.3
003C4887 2019-02-12 00:44:19 21 27 20.5
003C4887 2019-02-12 00:11:59 21 27 20.7
003C4887 2019-02-11 23:39:38 21 27 21
003C4887 2019-02-11 23:07:18 21.1 27 21.1
003C4887 2019-02-11 22:35:00 21.2 27 21.5
003C4887 2019-02-11 22:02:41 21.2 27 17.3
003C4887 2019-02-11 21:30:23 21.3 27 17.7
003C4887 2019-02-11 20:58:05 21.4 27 18
003C4887 2019-02-11 20:25:45 21.5 27 17.9
003C4887 2019-02-11 19:53:25 21.6 27 18.1
003C4887 2019-02-11 19:21:06 21.7 27 18.7
003C4887 2019-02-11 18:48:46 21.8 27 18.4
003C4887 2019-02-11 18:16:26 22 26 19.2
003C4887 2019-02-11 17:44:05 22.3 27 20.3
003C4887 2019-02-11 17:11:43 22.3 27 16.2
003C4887 2019-02-11 16:39:22 22.5 32 0